Regional Weather Roundup
Issued by NWS Cleveland, OH

Home | Current Version | Previous Version | Graphics & Text | Print | Product List | Glossary On
Versions: 1 2 3 4 5 6 7 8 9 10 11 12 13 14 15 16 17 18 19 20 21 22 23 24 25 26 27 28 29 30 31 32 33 34 35 36 37 38 39 40 41 42 43 44 45 46 47 48 49 50
000
ASUS41 KCLE 011900
RWRCLE
OHIO REGIONAL WEATHER ROUNDUP
NATIONAL WEATHER SERVICE WILMINGTON, OH
200 PM EST SUN FEB 01 2015

NOTE: "FAIR" INDICATES FEW OR NO CLOUDS BELOW 12,000 FEET WITH NO
SIGNIFICANT WEATHER AND/OR OBSTRUCTIONS TO VISIBILITY.

OHZ001>008-015>018-024>027-034-035-043-044-012000-
   NORTHWEST OHIO

CITY           SKY/WX    TMP DP  RH WIND       PRES   REMARKS
DEFIANCE       SNOW      28  25  88 E15G24    29.83F VSB 1/2 WCI  16
FINDLAY        CLOUDY    34  32  92 E13       29.83F FOG     WCI  25
TOLEDO EXPRESS SNOW      26  23  88 E17G28    29.88F VSB 1/4 WCI  13
TOLEDO EXEC    SNOW      29  26  89 NE15G21   29.91F VSB 1/4 WCI  18
LIMA           LGT SNOW  36  32  85 SE13      29.80F FOG
$$

OHZ009>014-019>023-028>033-038-089-012000-
   NORTHEAST OHIO

CITY           SKY/WX    TMP DP  RH WIND       PRES   REMARKS
CLE-HOPKINS    SNOW      31  29  92 E7        29.95F VSB 1/2 WCI  24
CLE-LAKEFRONT  SNOW      32  30  92 E7        29.94F VSB 1/2 WCI  26
CUY CO. ARPT   SNOW      32  30  93 E9        29.95F VSB 1/2 WCI  24
LORAIN-ELYRIA  LGT SNOW  31  29  92 SE7       29.92F VSB 1   WCI  24
ASHTABULA      SNOW      29  26  89 E10       29.98F VSB 1/2 WCI  20
AKRON-CANTON   LGTSLEET  32  28  85 E10       29.89F WCI  24
WOOSTER        NOT AVBL
MANSFIELD      LGT SNOW  32  31  96 E9        29.86F FOG     WCI  24
YOUNGSTOWN     SNOW      29  27  92 E9        29.93F VSB 1/2 WCI  20
$$

OHZ042-051>053-060>062-070>072-077>081-012000-
  SOUTHWEST OHIO

CITY           SKY/WX    TMP DP  RH WIND       PRES   REMARKS
CINC-COVINGTON LGT RAIN  44  39  82 S16G26    29.73F
CINC-LUNKEN    LGT RAIN  43  38  82 S12G21    29.76F
HAMILTON       LGT RAIN  41  36  82 VRB5      29.75F
DAYTON         LGT RAIN  37  30  75 SE12      29.77F FOG
WRIGHT-PAT AFB LGT RAIN  36  30  78 SE8       29.76F FOG
DAYTON GENERAL RAIN      39  33  79 SE9       29.74F
WILMINGTON     LGT RAIN  39  31  72 S13       29.77F
$$

OHZ036-037-039>041-045>050-054>059-063>069-073>076-082>088-012000-
  CENTRAL AND SOUTHEAST OHIO

CITY           SKY/WX    TMP DP  RH WIND       PRES   REMARKS
COLUMBUS       CLOUDY    35  31  85 SE10      29.85F WCI  27
OSU AIRPORT    CLOUDY    35  32  88 SE10      29.83F WCI  27
BOLTON FIELD   NOT AVBL
RICKENBACK AFB NOT AVBL
NEWARK         CLOUDY    35  31  85 E6        29.87F
MARION         CLOUDY    34  31  88 SE9       29.85F WCI  27
LANCASTER      CLOUDY    37  31  78 SE12      29.86F
ZANESVILLE     CLOUDY    33  30  88 SE6       29.89F WCI  28
NEW PHILLY     CLOUDY    34  30  85 SE7       29.92F WCI  28
$$



USA.gov is the U.S. government's official web portal to all federal, state and local government web resources and services.